Terug naar catalogus

COSMOS 2251 DEB

ActiefLEO
NORAD 37483·DEBRIS·🇷🇺 Russia

Gelanceerd Jun 16, 1993 vanaf Plesetsk Cosmodrome

Loading…

Volgende Passages (komende 24 uur)

TLE

VerouderendSource: Space-Track

Epoch: Sep 11, 2026, 23:50 UTC

1 37483U 93036BLL 26254.99327898  .00000412  00000-0  12274-3 0  9996
2 37483  73.9768 353.3384 0091384 137.8783 222.9446 14.43945656692236

Volg COSMOS 2251 DEB in realtime met AllMySat

Download on the App Store